sat.trackr.live / text

‹ back to catalog

STARLINK-35147

NORAD 65637 · 2025-210R

PAYLOAD ACTIVE UNKNOWN

§ Identity

Operator
Country
US
Launch date
2025-09-18
Launch site
AFETR
Launch vehicle
Mass (kg)
RCS (m²)

Purposes: comms

External: N2YO · Heavens-Above · Gunter

§ Orbital elements

Epoch: 2026-09-20T07:52:56.113536Z

Period
93.85 min
Inclination
53.1587°
Eccentricity
0.0001077
Mean motion
15.34404103 rev/d
Perigee alt
462.0 km
Apogee alt
463.4 km
Semi-major
6,840.8 km
B*
4.6280e-4
RAAN
118.5748°
Arg perigee
48.9855°
Mean anomaly
311.1241°
Rev number
5,759

§ Raw data

STARLINK-351471 65637U 25210R   26263.32842724  .00015294  00000+0  46280-3 0  99912 65637  53.1587 118.5748 0001077  48.9855 311.1241 15.34404103 57590

JSON: /api/v1/satellites/65637 · /tle

For live sub-satellite position, see the globe view (requires WebGL).

§ Visibility from observer

Set your observer location to see the next 7 days of passes ≥ 10°. The values pass through the URL so the page stays shareable.

No JS? Fill the form by hand. The geolocation button needs JavaScript.